Regional Weather Roundup
Issued by NWS

Home | Current Version | Previous Version | Text Only | Print | Product List | Glossary Off
Versions: 1 2 3 4 5 6 7 8 9 10 11 12 13 14 15 16 17 18 19 20 21 22 23 24 25 26 27 28 29 30 31 32 33 34 35 36 37 38 39 40 41 42 43 44 45 46 47 48 49 50

684
ASUS43 KDTX 240901
RWRMI
MICHIGAN HOURLY REGIONAL WEATHER ROUNDUP
NATIONAL WEATHER SERVICE DETROIT/PONTIAC MI
500 AM EDT MON APR 24 2017

NOTE: "FAIR" INDICATES FEW OR NO CLOUDS BELOW 12,000 FEET WITH NO
SIGNIFICANT WEATHER AND/OR OBSTRUCTION TO VISIBILITY.

MIZ047>049-052>055-059>063-066>070-074>076-081>083-241000-
SOUTHEAST LOWER MICHIGAN

CITY           SKY/WX    TMP DP  RH WIND       PRES   REMARKS
ADRIAN         CLOUDY    39  34  82 NE5       30.05S
ALMA           CLEAR     40  38  91 NE8       30.09S WCI  35
ANN ARBOR      CLOUDY    41  36  82 NE6       30.06S
BAD AXE        CLEAR     37  34  90 CALM      30.11S
CARO           CLEAR     38  34  86 NE3       30.09F
DETROIT CITY   CLEAR     41  37  86 NE7       30.07F
DETROIT        PTCLDY    42  37  82 NE7       30.07S
FLINT          CLEAR     40  36  86 E8        30.09S WCI  34
GROSSE ILE     CLEAR     42  38  85 NE7       30.06R
HILLSDALE      CLEAR     37  32  81 NE3       30.03S
HOWELL         CLEAR     40  36  84 E5        30.06S

CITY           SKY/WX    TMP DP  RH WIND       PRES   REMARKS
JACKSON        CLEAR     42  36  79 CALM      30.05S
LAMBERTVILLE   CLEAR     42  39  89 NE6       30.04R
LANSING        CLEAR     39  35  86 E6        30.07R WCI  35
LAPEER         FAIR      38  37  93 CALM      30.09R
MASON          CLEAR     40  39  95 CALM      30.06S
MONROE         CLEAR     43  40  88 NE3       30.05S
MT. CLEMENS    PTCLDY    38  38  99 N6        30.07R WCI  34
PONTIAC        PTCLDY    40  35  83 NE5       30.07R
PORT HOPE        N/A     40  37  89 E14       30.10F WCI  32
PORT HURON     CLOUDY    39  36  87 CALM      30.09S
TRI CITIES     CLEAR     41  36  82 E7        30.10S
MIDLAND        FAIR      41  33  73 NE6       30.09S
TROY           CLOUDY    42  36  78 N5        30.09F
SAGINAW HB     CLEAR     37  32  81 NE6       30.09F WCI  33
$$
MIZ043>046-050>051-056>058-064>065-071>073-077>080-241000-
SOUTHWEST LOWER MICHIGAN

CITY           SKY/WX    TMP DP  RH WIND       PRES   REMARKS
BATTLE CREEK   CLEAR     45  42  89 E3        30.04F
BENTON HARBOR  CLEAR     34  30  85 CALM      30.02S
BIG RAPIDS     CLEAR     39  33  78 E5        30.07R
COLDWATER      CLEAR     40  39  95 CALM      30.03S
FREMONT        FAIR      42  32  68 E6        30.05R
HOLLAND        CLEAR     44  40  85 E8        30.04S
GRAND RAPIDS   CLEAR     42  39  89 E9        30.05S
KALAMAZOO      PTCLDY    44  38  79 CALM      30.03F
LUDINGTON      CLEAR     39  36  89 E7        30.04F WCI  34
MARSHALL       CLEAR     44  42  93 CALM      30.04S
MOUNT PLEASANT CLEAR     38  34  84 NE5       30.09S WCI  35
MUSKEGON       CLEAR     43  37  79 E7        30.04S
SOUTH HAVEN    CLEAR     41  33  74 E3        30.02S
$$
MIZ016>042-241000-
NORTHERN LOWER MICHIGAN

CITY           SKY/WX    TMP DP  RH WIND       PRES   REMARKS
ALPENA         CLEAR     35  32  88 E6        30.15R WCI  30
BEAVER ISLAND  CLEAR     33  29  86 E9        30.10F WCI  25
BELLAIRE       CLEAR     34  23  64 NE3       30.10S
CADILLAC       CLEAR     36  30  80 CALM      30.06S
CHARLEVOIX     CLEAR     36  27  71 E13       30.12F WCI  27
FRANKFORT      CLEAR     38  27  66 CALM      30.06S
GAYLORD        CLEAR     33  23  66 E3        30.09S
GRAYLING       CLEAR     31  25  77 E3        30.11R
HARBOR SPRINGS CLEAR     32  28  86 E10       30.11F WCI  24
HOUGHTON LAKE  CLEAR     35  23  61 E6        30.09F WCI  30
MANISTEE       CLEAR     35  30  82 E8        30.06S WCI  29
OSCODA         CLEAR     38  34  85 NE7       30.12F WCI  32
PELLSTON       CLEAR     28  24  85 CALM      30.13S
ROGERS CITY    MOCLDY    36  32  85 SE7       30.15S WCI  30
TRAVERSE CITY  CLEAR     31  28  89 CALM      30.08F
$$
MIZ007>008-015-241000-
EASTERN UPPER MICHIGAN

CITY           SKY/WX    TMP DP  RH WIND       PRES   REMARKS
KINROSS        CLOUDY    34  25  69 E10       30.13F WCI  26
NEWBERRY       MOCLDY    30  26  86 NE6       30.11F WCI  24
S. S. MARIE    CLOUDY    37  24  59 E6        30.14F WCI  32
MUNISING         N/A     31  24  75 CALM      30.11F
$$
MIZ004>006-011>014-085-241000-
CENTRAL UPPER MICHIGAN

CITY           SKY/WX    TMP DP  RH WIND       PRES   REMARKS
MANISTIQUE     CLEAR     28  26  90 NE3       30.11S
ESCANABA       CLEAR     31  25  78 NE7       30.10S WCI  24
MENOMINEE      PTCLDY    35  28  75 E8        30.08S WCI  29
$$
MIZ001>003-009>011-084-241000-
WESTERN UPPER MICHIGAN

CITY           SKY/WX    TMP DP  RH WIND       PRES   REMARKS
IRON MOUNTAIN  CLOUDY    29  19  66 VRB3      30.06S
HOUGHTON       CLOUDY    31  21  66 E14       30.07F WCI  21
COPPER HARBOR    N/A     33  24  69 VRB5      30.12F WCI  29
IRONWOOD       CLOUDY    32  25  75 E8        30.00F WCI  25
$$

ABBREVIATIONS USED IN REMARKS
   TC - TEMPERATURE IN CELSIUS
  WCI - WIND CHILL INDEX
   HX - HEAT INDEX
  VSB - VISIBILITY





USA.gov is the U.S. government's official web portal to all federal, state and local government web resources and services.